Location: Zagreb
(45.8000°N, 16.0000°E)
Time: 15:32:39
(UTC+02:00)

Tiros 1 despin weight - Pass Details

Date: 15 August 2022
Orbit: 590 x 639 km, 48.2° (Epoch: 23 September)

Event Time Altitude Azimuth Distance (km) Brightness Sun altitude
Rises 15:49:49 0° 286° (WNW) 2,841 ? 42.3°
Reaches altitude 10° 15:52:08 10° 287° (WNW) 1,932 ? 41.9°
Maximum altitude 15:56:33 84° 14° (NNE) 600 ? 41.2°
Drops below altitude 10° 16:00:57 10° 105° (ESE) 1,914 ? 40.6°
Sets 16:03:14 0° 106° (ESE) 2,813 ? 40.2°
